This is the latest recevied weather packets stored in our database for station/object SR7U-1. If no packets are shown the sender has not sent any weather packets the latest 10 day(s).
| Time | Temp. | Humidity | Pressure | Rain* | Wind** | Luminosity | Snow |
|---|---|---|---|---|---|---|---|
| 1777894635 | 24.44° C | 26% | 1013.6 hPa | - | - | - | - |
| 1777893755 | 24.44° C | 26% | 1013.8 hPa | - | - | - | - |
| 1777893015 | 23.89° C | 26% | 1013.9 hPa | - | - | - | - |
| 1777892195 | 23.89° C | 25% | 1014.1 hPa | - | - | - | - |
| 1777891455 | 23.33° C | 27% | 1014.2 hPa | - | - | - | - |
| 1777890575 | 22.78° C | 27% | 1014.5 hPa | - | - | - | - |
| 1777889794 | 23.33° C | 27% | 1014.7 hPa | - | - | - | - |
| 1777889015 | 23.33° C | 27% | 1014.9 hPa | - | - | - | - |
| 1777888135 | 22.78° C | 27% | 1015.1 hPa | - | - | - | - |
| 1777887270 | 22.22° C | 28% | 1015.3 hPa | - | - | - | - |
| 1777886493 | 22.22° C | 28% | 1015.3 hPa | - | - | - | - |
| 1777885752 | 22.22° C | 29% | 1015.4 hPa | - | - | - | - |
| 1777884978 | 22.22° C | 28% | 1015.5 hPa | - | - | - | - |
| 1777884155 | 21.67° C | 30% | 1015.4 hPa | - | - | - | - |
| 1777883312 | 21.67° C | 30% | 1015.4 hPa | - | - | - | - |
| 1777882433 | 20.56° C | 33% | 1015.3 hPa | - | - | - | - |
| 1777881630 | 21.11° C | 33% | 1015.4 hPa | - | - | - | - |
| 1777880807 | 20° C | 35% | 1015.6 hPa | - | - | - | - |
| 1777879915 | 19.44° C | 42% | 1015.5 hPa | - | - | - | - |
| 1777879180 | 18.33° C | 43% | 1015.5 hPa | - | - | - | - |
| 1777878285 | 17.78° C | 44% | 1015.6 hPa | - | - | - | - |
| 1777877500 | 17.78° C | 41% | 1015.6 hPa | - | - | - | - |
| 1777876605 | 17.78° C | 41% | 1015.6 hPa | - | - | - | - |
| 1777875801 | 17.22° C | 42% | 1015.6 hPa | - | - | - | - |
| 1777875040 | 16.11° C | 43% | 1015.6 hPa | - | - | - | - |
* Rain since midnight (hover to see other rain measurements)
** Current wind speed in m/s (hover to see current wind gust speed)